Simultaneous Nadir Overpasses (SNOs) Predictions

Prediction of SNOs between AQUA and METOP-B Satellite Orbit:

Table of predicted SNOs for the next 14.0 days since TLE Epoch: 6/12/2021
Index Date (AQUA) Time (AQUA) Lat,Lon (AQUA) SZA (AQUA ) Date (METOP-B) Time (METOP-B) Lat,Lon (METOP-B) SZA (METOP-B ) Distance(km) Time Diff (sec)
1 06/14/2021 12:06:43 73.76, -7.35 50.48 06/14/2021 12:05:56 73.77, -7.29 50.50 2.00 47
2 06/14/2021 12:56:10 -73.82, 160.17 129.46 06/14/2021 12:56:37 -73.84, 160.19 129.45 1.57 27
3 06/17/2021 07:40:57 73.77, 59.09 50.39 06/17/2021 07:40:19 73.75, 59.08 50.39 1.24 38
4 06/17/2021 08:30:24 -73.82,-133.39 129.55 06/17/2021 08:31:00 -73.82,-133.43 129.56 1.27 36
5 06/20/2021 03:15:12 73.77, 125.51 50.36 06/20/2021 03:14:42 73.79, 125.56 50.37 2.06 30
6 06/20/2021 04:04:39 -73.83, -66.97 129.59 06/20/2021 04:05:23 -73.86, -66.95 129.57 3.15 44
7 06/22/2021 21:59:47 -73.11, 25.70 130.34 06/22/2021 21:58:41 -73.06, 22.99 130.27 87.96 66
8 06/22/2021 22:49:27 73.79,-168.08 50.38 06/22/2021 22:49:06 73.77,-168.08 50.37 2.30 21
9 06/22/2021 23:38:54 -73.84, -0.56 129.56 06/22/2021 23:39:47 -73.84, -0.58 129.57 0.91 53
10 06/25/2021 17:34:07 -73.45, 91.45 129.92 06/25/2021 17:32:57 -73.39, 90.12 129.91 42.74 70
11 06/25/2021 18:23:41 73.81,-101.68 50.47 06/25/2021 18:23:28 73.79,-101.61 50.46 2.71 13
12 06/25/2021 19:13:08 -73.86, 65.84 129.47 06/25/2021 19:14:09 -73.87, 65.89 129.47 1.80 61



Historial Predications of SNOs between AQUA and METOP-B
